| time (UTC) | temp F | wind direction | speed MPH | gust MPH | rain 1hr in | rain 24hr in | rain mn in | humidity % | barometer mb |
| 20260906104030 | 72 | 241 | 0.0 | 0.0 | 0.00 | 0.00 | 0.00 | 97 | 1009.4 |
| 20260906103518 | 72 | 241 | 0.0 | 4.0 | 0.00 | 0.00 | 0.00 | 97 | 1009.2 |
| 20260906103031 | 72 | 241 | 0.0 | 4.0 | 0.00 | 0.00 | 0.00 | 97 | 1009.1 |
| 20260906102511 | 72 | 241 | 0.0 | 3.0 | 0.00 | 0.00 | 0.00 | 97 | 1009.1 |
| 20260906102101 | 72 | 241 | 0.0 | 5.0 | 0.00 | 0.00 | 0.00 | 97 | 1008.8 |
| 20260906101521 | 72 | 241 | 0.0 | 6.0 | 0.00 | 0.00 | 0.00 | 97 | 1008.8 |
| 20260906101057 | 72 | 241 | 2.0 | 5.0 | 0.00 | 0.00 | 0.00 | 97 | 1008.8 |
| 20260906100541 | 72 | 241 | 0.0 | 5.0 | 0.00 | 0.00 | 0.00 | 97 | 1008.7 |
| 20260906100058 | 72 | 241 | 0.0 | 5.0 | 0.00 | 0.00 | 0.00 | 97 | 1008.7 |
| 20260906095542 | 72 | 241 | 2.0 | 6.0 | 0.00 | 0.00 | 0.00 | 97 | 1008.6 |
| 20260906095029 | 72 | 241 | 3.0 | 6.0 | 0.00 | 0.00 | 0.00 | 98 | 1008.5 |
| 20260906094532 | 71 | 241 | 2.0 | 5.0 | 0.00 | 0.00 | 0.00 | 98 | 1008.5 |
| 20260906094114 | 71 | 241 | 3.0 | 5.0 | 0.00 | 0.00 | 0.00 | 98 | 1008.5 |
| 20260906093543 | 71 | 241 | 2.0 | 4.0 | 0.00 | 0.00 | 0.00 | 98 | 1008.5 |
| 20260906093113 | 71 | 241 | 2.0 | 5.0 | 0.00 | 0.00 | 0.00 | 98 | 1008.5 |
| 20260906092537 | 71 | 241 | 2.0 | 5.0 | 0.00 | 0.00 | 0.00 | 98 | 1008.5 |
| 20260906092026 | 70 | 241 | 1.0 | 4.0 | 0.00 | 0.00 | 0.00 | 98 | 1008.5 |
| 20260906091537 | 70 | 241 | 0.0 | 0.0 | 0.00 | 0.00 | 0.00 | 98 | 1008.4 |
| 20260906091030 | 69 | 241 | 0.0 | 0.0 | 0.00 | 0.00 | 0.00 | 98 | 1008.4 |
| 20260906090509 | 69 | 241 | 0.0 | 0.0 | 0.00 | 0.00 | 0.00 | 97 | 1008.4 |
| 20260906090124 | 69 | 241 | 0.0 | 0.0 | 0.00 | 0.00 | 0.00 | 97 | 1008.4 |
| 20260906085548 | 69 | 241 | 0.0 | 0.0 | 0.00 | 0.00 | 0.00 | 97 | 1008.4 |
| 20260906085039 | 69 | 241 | 0.0 | 0.0 | 0.00 | 0.00 | 0.00 | 97 | 1008.4 |
| 20260906084553 | 69 | 241 | 0.0 | 0.0 | 0.00 | 0.00 | 0.00 | 97 | 1008.2 |
| 20260906084034 | 69 | 241 | 0.0 | 0.0 | 0.00 | 0.00 | 0.00 | 97 | 1008.1 |
| 20260906083511 | 69 | 241 | 0.0 | 0.0 | 0.00 | 0.00 | 0.00 | 97 | 1008.0 |
| 20260906083040 | 69 | 241 | 0.0 | 0.0 | 0.00 | 0.00 | 0.00 | 97 | 1008.0 |
| 20260906082516 | 69 | 241 | 0.0 | 0.0 | 0.00 | 0.00 | 0.00 | 97 | 1008.1 |
| 20260906082057 | 69 | 241 | 0.0 | 0.0 | 0.00 | 0.00 | 0.00 | 97 | 1008.1 |
| 20260906081511 | 69 | 241 | 0.0 | 0.0 | 0.00 | 0.00 | 0.00 | 97 | 1008.1 |
| 20260906081059 | 69 | 241 | 0.0 | 0.0 | 0.00 | 0.00 | 0.00 | 97 | 1008.1 |
| 20260906080544 | 69 | 241 | 0.0 | 0.0 | 0.00 | 0.00 | 0.00 | 97 | 1008.1 |
| 20260906080100 | 70 | 241 | 0.0 | 0.0 | 0.00 | 0.00 | 0.00 | 97 | 1008.1 |
| 20260906075546 | 70 | 241 | 0.0 | 1.0 | 0.00 | 0.00 | 0.00 | 96 | 1008.1 |
| 20260906075032 | 70 | 241 | 0.0 | 2.0 | 0.00 | 0.00 | 0.00 | 96 | 1008.0 |
| 20260906074549 | 70 | 241 | 1.0 | 2.0 | 0.00 | 0.00 | 0.00 | 96 | 1008.0 |
| 20260906074031 | 70 | 241 | 0.0 | 0.0 | 0.00 | 0.00 | 0.00 | 96 | 1008.0 |
| 20260906073520 | 70 | 241 | 0.0 | 0.0 | 0.00 | 0.00 | 0.00 | 96 | 1008.0 |
| 20260906073004 | 71 | 241 | 0.0 | 0.0 | 0.00 | 0.00 | 0.00 | 96 | 1008.0 |
| 20260906072549 | 71 | 241 | 0.0 | 0.0 | 0.00 | 0.00 | 0.00 | 96 | 1008.0 |
| 20260906072032 | 71 | 241 | 0.0 | 0.0 | 0.00 | 0.00 | 0.00 | 97 | 1008.0 |
| 20260906071523 | 71 | 241 | 0.0 | 0.0 | 0.00 | 0.00 | 0.00 | 97 | 1008.0 |
| 20260906071002 | 71 | 241 | 0.0 | 0.0 | 0.00 | 0.00 | 0.00 | 97 | 1008.0 |
| 20260906070556 | 71 | 241 | 0.0 | 0.0 | 0.00 | 0.00 | 0.00 | 97 | 1008.2 |
| 20260906065518 | 71 | 241 | 0.0 | 0.0 | 0.00 | 0.00 | 0.00 | 97 | 1008.4 |
| 20260906065057 | 70 | 241 | 0.0 | 3.0 | 0.00 | 0.00 | 0.00 | 96 | 1008.5 |
| 20260906064505 | 71 | 241 | 1.0 | 3.0 | 0.00 | 0.00 | 0.00 | 97 | 1008.5 |
| 20260906064058 | 70 | 241 | 0.0 | 0.0 | 0.00 | 0.00 | 0.00 | 96 | 1008.4 |
| 20260906063544 | 70 | 241 | 0.0 | 0.0 | 0.00 | 0.00 | 0.00 | 96 | 1008.6 |
| 20260906063053 | 70 | 241 | 0.0 | 0.0 | 0.00 | 0.00 | 0.00 | 96 | 1008.6 |
| 20260906062535 | 70 | 241 | 0.0 | 0.0 | 0.00 | 0.00 | 0.00 | 96 | 1008.6 |
| 20260906062011 | 70 | 241 | 0.0 | 0.0 | 0.00 | 0.00 | 0.00 | 96 | 1008.5 |
| 20260906061531 | 70 | 241 | 0.0 | 0.0 | 0.00 | 0.00 | 0.00 | 96 | 1008.5 |
| 20260906061016 | 70 | 241 | 0.0 | 0.0 | 0.00 | 0.00 | 0.00 | 95 | 1008.6 |
| 20260906060558 | 70 | 241 | 0.0 | 1.0 | 0.00 | 0.00 | 0.00 | 95 | 1008.6 |
| 20260906060006 | 70 | 241 | 0.0 | 1.0 | 0.00 | 0.00 | 0.00 | 95 | 1008.7 |
| 20260906055550 | 70 | 241 | 0.0 | 0.0 | 0.00 | 0.00 | 0.00 | 95 | 1008.6 |
| 20260906055035 | 71 | 241 | 0.0 | 0.0 | 0.00 | 0.00 | 0.00 | 95 | 1008.4 |
| 20260906054555 | 71 | 241 | 0.0 | 0.0 | 0.00 | 0.00 | 0.00 | 95 | 1008.5 |
| 20260906054042 | 71 | 241 | 0.0 | 0.0 | 0.00 | 0.00 | 0.00 | 95 | 1008.5 |
| 20260906053513 | 71 | 241 | 0.0 | 0.0 | 0.00 | 0.00 | 0.00 | 95 | 1008.7 |
| 20260906053040 | 71 | 241 | 0.0 | 0.0 | 0.00 | 0.00 | 0.00 | 95 | 1008.7 |
| 20260906052527 | 71 | 241 | 0.0 | 0.0 | 0.00 | 0.00 | 0.00 | 95 | 1008.7 |
| 20260906052021 | 71 | 241 | 0.0 | 0.0 | 0.00 | 0.00 | 0.00 | 94 | 1008.8 |
| 20260906051532 | 71 | 241 | 0.0 | 0.0 | 0.00 | 0.00 | 0.00 | 95 | 1008.8 |
| 20260906051015 | 71 | 241 | 0.0 | 0.0 | 0.00 | 0.00 | 0.00 | 95 | 1008.8 |
| 20260906050554 | 71 | 241 | 0.0 | 0.0 | 0.00 | 0.00 | 0.00 | 94 | 1008.7 |
| 20260906050014 | 71 | 241 | 0.0 | 0.0 | 0.00 | 0.00 | 0.00 | 94 | 1008.6 |
| 20260906045557 | 71 | 241 | 0.0 | 0.0 | 0.00 | 0.00 | 0.00 | 94 | 1008.8 |
| 20260906045046 | 72 | 241 | 0.0 | 0.0 | 0.00 | 0.00 | 0.00 | 93 | 1008.7 |
| 20260906044501 | 72 | 241 | 0.0 | 0.0 | 0.00 | 0.00 | 0.00 | 94 | 1008.7 |
| 20260906044045 | 72 | 241 | 0.0 | 0.0 | 0.00 | 0.00 | 0.00 | 94 | 1008.7 |
| 20260906043535 | 72 | 241 | 0.0 | 2.0 | 0.00 | 0.00 | 0.00 | 94 | 1008.7 |
| 20260906043105 | 72 | 241 | 0.0 | 2.0 | 0.00 | 0.00 | 0.00 | 94 | 1008.8 |
| 20260906042540 | 72 | 241 | 0.0 | 0.0 | 0.00 | 0.00 | 0.00 | 93 | 1008.9 |
| 20260906042024 | 72 | 241 | 0.0 | 0.0 | 0.00 | 0.00 | 0.00 | 93 | 1009.0 |
| 20260906041539 | 72 | 241 | 0.0 | 0.0 | 0.00 | 0.00 | 0.00 | 93 | 1008.9 |
| 20260906041029 | 73 | 241 | 0.0 | 0.0 | 0.00 | 0.00 | 0.00 | 93 | 1009.0 |
| 20260906040506 | 73 | 241 | 0.0 | 0.0 | 0.00 | 0.00 | 0.00 | 92 | 1008.9 |
| 20260906040059 | 73 | 241 | 0.0 | 0.0 | 0.00 | 0.00 | 0.00 | 93 | 1008.8 |
| 20260906035532 | 73 | 241 | 0.0 | 0.0 | 0.00 | 0.00 | 0.00 | 92 | 1008.7 |
| 20260906035015 | 73 | 241 | 0.0 | 0.0 | 0.00 | 0.00 | 0.00 | 92 | 1008.8 |
| 20260906034536 | 73 | 241 | 0.0 | 0.0 | 0.00 | 0.00 | 0.00 | 91 | 1008.7 |
| 20260906034008 | 73 | 241 | 0.0 | 0.0 | 0.00 | 0.00 | 0.00 | 91 | 1008.7 |
| 20260906033555 | 74 | 241 | 0.0 | 0.0 | 0.00 | 0.00 | 0.00 | 92 | 1008.8 |
| 20260906033021 | 74 | 241 | 0.0 | 0.0 | 0.00 | 0.00 | 0.00 | 92 | 1008.9 |
| 20260906032549 | 74 | 241 | 0.0 | 0.0 | 0.00 | 0.00 | 0.00 | 92 | 1008.8 |
| 20260906032032 | 74 | 241 | 0.0 | 2.0 | 0.00 | 0.00 | 0.00 | 92 | 1008.9 |
| 20260906031546 | 74 | 241 | 0.0 | 2.0 | 0.00 | 0.00 | 0.00 | 93 | 1008.9 |
| 20260906031035 | 73 | 241 | 0.0 | 0.0 | 0.00 | 0.00 | 0.00 | 93 | 1008.8 |
| 20260906030526 | 73 | 241 | 0.0 | 2.0 | 0.00 | 0.00 | 0.00 | 93 | 1008.7 |
| 20260906030007 | 73 | 241 | 0.0 | 2.0 | 0.00 | 0.00 | 0.00 | 94 | 1008.7 |
| 20260906025551 | 73 | 241 | 1.0 | 2.0 | 0.00 | 0.00 | 0.00 | 94 | 1008.7 |
| 20260906025040 | 73 | 241 | 0.0 | 2.0 | 0.00 | 0.00 | 0.00 | 93 | 1008.6 |
| 20260906024531 | 74 | 241 | 1.0 | 2.0 | 0.00 | 0.00 | 0.00 | 93 | 1008.5 |
| 20260906024009 | 74 | 241 | 0.0 | 2.0 | 0.00 | 0.00 | 0.00 | 93 | 1008.6 |
| 20260906023601 | 74 | 241 | 0.0 | 0.0 | 0.00 | 0.00 | 0.00 | 93 | 1008.7 |
| 20260906023025 | 74 | 241 | 0.0 | 0.0 | 0.00 | 0.00 | 0.00 | 93 | 1008.6 |
| 20260906022558 | 74 | 241 | 0.0 | 0.0 | 0.00 | 0.00 | 0.00 | 93 | 1008.6 |
| 20260906022044 | 74 | 241 | 0.0 | 2.0 | 0.00 | 0.00 | 0.00 | 92 | 1008.6 |
| 20260906021612 | 74 | 241 | 0.0 | 2.0 | 0.00 | 0.00 | 0.00 | 92 | 1008.5 |
| 20260906021042 | 75 | 241 | 0.0 | 0.0 | 0.00 | 0.00 | 0.00 | 92 | 1008.4 |
| 20260906020524 | 75 | 241 | 0.0 | 0.0 | 0.00 | 0.00 | 0.00 | 91 | 1008.4 |
| 20260906020041 | 75 | 241 | 0.0 | 0.0 | 0.00 | 0.00 | 0.00 | 91 | 1008.3 |
| 20260906015524 | 75 | 241 | 0.0 | 0.0 | 0.00 | 0.00 | 0.00 | 91 | 1008.2 |
| 20260906015003 | 75 | 241 | 0.0 | 0.0 | 0.00 | 0.00 | 0.00 | 91 | 1008.2 |
| 20260906014531 | 75 | 241 | 0.0 | 0.0 | 0.00 | 0.00 | 0.00 | 90 | 1008.2 |
| 20260906014003 | 75 | 241 | 0.0 | 0.0 | 0.00 | 0.00 | 0.00 | 90 | 1008.2 |
| 20260906013553 | 76 | 241 | 0.0 | 2.0 | 0.00 | 0.00 | 0.00 | 89 | 1008.1 |
| 20260906013014 | 76 | 241 | 0.0 | 3.0 | 0.00 | 0.00 | 0.00 | 89 | 1008.2 |
| 20260906012552 | 76 | 241 | 0.0 | 2.0 | 0.00 | 0.00 | 0.00 | 89 | 1008.0 |
| 20260906012041 | 76 | 241 | 0.0 | 2.0 | 0.00 | 0.00 | 0.00 | 88 | 1008.1 |
| 20260906011551 | 77 | 241 | 0.0 | 2.0 | 0.00 | 0.00 | 0.00 | 87 | 1008.0 |
| 20260906011034 | 77 | 241 | 0.0 | 2.0 | 0.00 | 0.00 | 0.00 | 85 | 1008.0 |
| 20260906010519 | 78 | 241 | 0.0 | 0.0 | 0.00 | 0.00 | 0.00 | 85 | 1007.9 |
| 20260906010003 | 78 | 241 | 0.0 | 0.0 | 0.00 | 0.00 | 0.00 | 83 | 1007.9 |
| 20260906005554 | 78 | 241 | 0.0 | 0.0 | 0.00 | 0.00 | 0.00 | 83 | 1007.8 |
| 20260906005039 | 79 | 241 | 0.0 | 0.0 | 0.00 | 0.00 | 0.00 | 83 | 1007.8 |
| 20260906004526 | 79 | 241 | 0.0 | 3.0 | 0.00 | 0.00 | 0.00 | 82 | 1007.7 |
| 20260906004105 | 79 | 241 | 0.0 | 3.0 | 0.00 | 0.00 | 0.00 | 81 | 1007.6 |
| 20260906003551 | 79 | 241 | 0.0 | 1.0 | 0.00 | 0.00 | 0.00 | 81 | 1007.6 |
| 20260906003108 | 80 | 241 | 0.0 | 0.0 | 0.00 | 0.00 | 0.00 | 80 | 1007.5 |
| 20260906002543 | 80 | 241 | 0.0 | 0.0 | 0.00 | 0.00 | 0.00 | 79 | 1007.5 |
| 20260906002021 | 80 | 241 | 0.0 | 0.0 | 0.00 | 0.00 | 0.00 | 79 | 1007.3 |
| 20260906001538 | 81 | 241 | 0.0 | 2.0 | 0.00 | 0.00 | 0.00 | 78 | 1007.3 |
| 20260906001026 | 81 | 241 | 0.0 | 2.0 | 0.00 | 0.00 | 0.00 | 77 | 1007.2 |
| 20260906000507 | 81 | 241 | 0.0 | 1.0 | 0.00 | 0.00 | 0.00 | 76 | 1007.2 |
| 20260906000030 | 82 | 241 | 0.0 | 0.0 | 0.00 | 0.00 | 0.00 | 76 | 1007.0 |
| 20260905235516 | 82 | 241 | 0.0 | 0.0 | 0.00 | 0.00 | 0.00 | 75 | 1007.1 |
| 20260905235055 | 82 | 241 | 0.0 | 0.0 | 0.00 | 0.00 | 0.00 | 75 | 1007.1 |
| 20260905234556 | 83 | 241 | 0.0 | 1.0 | 0.00 | 0.00 | 0.00 | 74 | 1007.0 |
| 20260905234036 | 84 | 241 | 0.0 | 1.0 | 0.00 | 0.00 | 0.00 | 73 | 1007.1 |
| 20260905233513 | 84 | 241 | 0.0 | 2.0 | 0.00 | 0.00 | 0.00 | 72 | 1007.1 |
| 20260905233001 | 84 | 241 | 0.0 | 3.0 | 0.00 | 0.00 | 0.00 | 71 | 1007.0 |
| 20260905232551 | 85 | 241 | 0.0 | 3.0 | 0.00 | 0.00 | 0.00 | 71 | 1006.9 |
| 20260905232037 | 85 | 241 | 0.0 | 2.0 | 0.00 | 0.00 | 0.00 | 71 | 1006.9 |
| 20260905231517 | 85 | 241 | 0.0 | 4.0 | 0.00 | 0.00 | 0.00 | 71 | 1006.9 |
| 20260905231102 | 85 | 241 | 2.0 | 4.0 | 0.00 | 0.00 | 0.00 | 71 | 1007.0 |
| 20260905230549 | 85 | 241 | 2.0 | 4.0 | 0.00 | 0.00 | 0.00 | 70 | 1006.9 |
| 20260905230043 | 85 | 241 | 1.0 | 4.0 | 0.00 | 0.00 | 0.00 | 70 | 1006.9 |
| 20260905225535 | 85 | 241 | 2.0 | 4.0 | 0.00 | 0.00 | 0.00 | 70 | 1007.0 |
| 20260905225009 | 85 | 241 | 2.0 | 6.0 | 0.00 | 0.00 | 0.00 | 69 | 1006.9 |
| 20260905224540 | 86 | 241 | 2.0 | 6.0 | 0.00 | 0.00 | 0.00 | 69 | 1006.9 |
| 20260905224005 | 86 | 241 | 3.0 | 6.0 | 0.00 | 0.00 | 0.00 | 68 | 1007.1 |
| 20260905223559 | 86 | 241 | 1.0 | 5.0 | 0.00 | 0.00 | 0.00 | 68 | 1007.0 |
| 20260905223020 | 86 | 241 | 1.0 | 4.0 | 0.00 | 0.00 | 0.00 | 69 | 1007.1 |
| 20260905222552 | 86 | 241 | 1.0 | 5.0 | 0.00 | 0.00 | 0.00 | 69 | 1007.1 |
| 20260905222034 | 86 | 241 | 2.0 | 6.0 | 0.00 | 0.00 | 0.00 | 67 | 1007.1 |
| 20260905221548 | 86 | 241 | 3.0 | 8.0 | 0.00 | 0.00 | 0.00 | 67 | 1007.1 |
| 20260905221027 | 86 | 241 | 3.0 | 8.0 | 0.00 | 0.00 | 0.00 | 67 | 1007.0 |
| 20260905220522 | 86 | 241 | 3.0 | 9.0 | 0.00 | 0.00 | 0.00 | 67 | 1007.0 |
| 20260905220033 | 86 | 241 | 5.0 | 9.0 | 0.00 | 0.00 | 0.00 | 66 | 1007.0 |
| 20260905215521 | 86 | 243 | 4.0 | 7.0 | 0.00 | 0.00 | 0.00 | 67 | 1007.1 |
| 20260905215058 | 86 | 243 | 3.0 | 7.0 | 0.00 | 0.00 | 0.00 | 66 | 1007.1 |
| 20260905214511 | 86 | 243 | 4.0 | 7.0 | 0.00 | 0.00 | 0.00 | 66 | 1007.2 |
| 20260905214101 | 86 | 242 | 3.0 | 6.0 | 0.00 | 0.00 | 0.00 | 66 | 1007.1 |
| 20260905213548 | 86 | 242 | 2.0 | 6.0 | 0.00 | 0.00 | 0.00 | 68 | 1007.2 |
| 20260905213111 | 85 | 242 | 3.0 | 10.0 | 0.00 | 0.00 | 0.00 | 66 | 1007.3 |
| 20260905212547 | 85 | 242 | 5.0 | 10.0 | 0.00 | 0.00 | 0.00 | 65 | 1007.3 |
| 20260905212034 | 85 | 243 | 4.0 | 7.0 | 0.00 | 0.00 | 0.00 | 67 | 1007.2 |
| 20260905211544 | 84 | 243 | 4.0 | 9.0 | 0.00 | 0.00 | 0.00 | 68 | 1007.1 |
| 20260905211033 | 84 | 243 | 4.0 | 9.0 | 0.00 | 0.00 | 0.00 | 66 | 1007.0 |
| 20260905210515 | 85 | 244 | 4.0 | 10.0 | 0.00 | 0.00 | 0.00 | 67 | 1007.1 |
| 20260905210005 | 85 | 244 | 5.0 | 9.0 | 0.00 | 0.00 | 0.00 | 67 | 1007.1 |
| 20260905205548 | 85 | 244 | 5.0 | 8.0 | 0.00 | 0.00 | 0.00 | 66 | 1007.0 |
| 20260905205033 | 85 | 244 | 3.0 | 7.0 | 0.00 | 0.00 | 0.00 | 68 | 1007.0 |
| 20260905204527 | 85 | 244 | 3.0 | 7.0 | 0.00 | 0.00 | 0.00 | 66 | 1007.1 |
| 20260905204005 | 86 | 244 | 3.0 | 7.0 | 0.00 | 0.00 | 0.00 | 65 | 1007.0 |
| 20260905203602 | 86 | 244 | 1.0 | 7.0 | 0.00 | 0.00 | 0.00 | 65 | 1007.0 |
| 20260905203005 | 86 | 244 | 3.0 | 9.0 | 0.00 | 0.00 | 0.00 | 65 | 1007.2 |
| 20260905202555 | 86 | 244 | 4.0 | 9.0 | 0.00 | 0.00 | 0.00 | 66 | 1007.0 |
| 20260905202041 | 85 | 245 | 5.0 | 10.0 | 0.00 | 0.00 | 0.00 | 65 | 1007.1 |
| 20260905201603 | 85 | 245 | 6.0 | 12.0 | 0.00 | 0.00 | 0.00 | 65 | 1007.0 |
| 20260905201046 | 85 | 245 | 7.0 | 11.0 | 0.00 | 0.00 | 0.00 | 64 | 1007.0 |
| 20260905200533 | 85 | 247 | 4.0 | 9.0 | 0.00 | 0.00 | 0.00 | 67 | 1007.0 |
| 20260905200053 | 85 | 247 | 4.0 | 9.0 | 0.00 | 0.00 | 0.00 | 68 | 1007.1 |
| 20260905195528 | 85 | 247 | 2.0 | 9.0 | 0.00 | 0.00 | 0.00 | 70 | 1007.0 |
| 20260905195020 | 85 | 247 | 2.0 | 8.0 | 0.00 | 0.00 | 0.00 | 68 | 1007.0 |
| 20260905194533 | 85 | 251 | 3.0 | 7.0 | 0.00 | 0.00 | 0.00 | 68 | 1007.1 |
| 20260905194018 | 84 | 251 | 4.0 | 8.0 | 0.00 | 0.00 | 0.00 | 70 | 1006.9 |
| 20260905193552 | 84 | 251 | 4.0 | 8.0 | 0.00 | 0.00 | 0.00 | 73 | 1007.0 |
| 20260905193002 | 84 | 251 | 2.0 | 7.0 | 0.00 | 0.00 | 0.00 | 72 | 1007.1 |
| 20260905192554 | 83 | 251 | 2.0 | 9.0 | 0.00 | 0.00 | 0.00 | 72 | 1006.6 |
| 20260905192040 | 82 | 251 | 3.0 | 9.0 | 0.00 | 0.00 | 0.00 | 74 | 1006.7 |
| 20260905191533 | 82 | 251 | 4.0 | 12.0 | 0.00 | 0.00 | 0.00 | 74 | 1006.8 |
| 20260905191028 | 82 | 253 | 4.0 | 12.0 | 0.00 | 0.00 | 0.00 | 76 | 1007.0 |
| 20260905190603 | 82 | 263 | 6.0 | 11.0 | 0.00 | 0.00 | 0.00 | 75 | 1006.8 |
| 20260905190014 | 82 | 268 | 0.0 | 0.0 | 0.00 | 0.00 | 0.00 | 72 | 1006.4 |
| 20260905185500 | 82 | 268 | 0.0 | 0.0 | 0.00 | 0.00 | 0.00 | 73 | 1006.0 |
| 20260905185050 | 82 | 268 | 0.0 | 0.0 | 0.00 | 0.00 | 0.00 | 76 | 1005.9 |
| 20260905184544 | 81 | 268 | 0.0 | 0.0 | 0.00 | 0.00 | 0.00 | 76 | 1006.3 |
| 20260905184017 | 81 | 268 | 0.0 | 0.0 | 0.00 | 0.00 | 0.00 | 76 | 1006.5 |
| 20260905183503 | 82 | 268 | 0.0 | 2.0 | 0.00 | 0.00 | 0.00 | 75 | 1006.5 |
| 20260905183052 | 82 | 268 | 0.0 | 4.0 | 0.00 | 0.00 | 0.00 | 74 | 1006.8 |
| 20260905182543 | 82 | 268 | 0.0 | 7.0 | 0.00 | 0.00 | 0.00 | 72 | 1007.3 |
| 20260905182024 | 83 | 268 | 1.0 | 9.0 | 0.00 | 0.00 | 0.00 | 70 | 1007.6 |
| 20260905181544 | 83 | 268 | 2.0 | 9.0 | 0.00 | 0.00 | 0.00 | 68 | 1007.5 |
| 20260905181020 | 84 | 268 | 0.0 | 9.0 | 0.00 | 0.00 | 0.00 | 68 | 1007.9 |
| 20260905180501 | 84 | 268 | 2.0 | 17.0 | 0.00 | 0.00 | 0.00 | 67 | 1008.1 |
| 20260905180021 | 85 | 268 | 8.0 | 17.0 | 0.00 | 0.00 | 0.00 | 65 | 1008.0 |
| 20260905175503 | 85 | 266 | 3.0 | 18.0 | 0.00 | 0.00 | 0.00 | 65 | 1008.0 |
| 20260905175049 | 86 | 264 | 8.0 | 16.0 | 0.00 | 0.00 | 0.00 | 64 | 1008.0 |
| 20260905174508 | 87 | 275 | 9.0 | 15.0 | 0.00 | 0.00 | 0.00 | 65 | 1008.2 |
| 20260905174055 | 88 | 284 | 4.0 | 10.0 | 0.00 | 0.00 | 0.00 | 66 | 1008.2 |
| 20260905173545 | 89 | 292 | 2.0 | 16.0 | 0.00 | 0.00 | 0.00 | 65 | 1008.4 |
| 20260905173111 | 90 | 292 | 7.0 | 16.0 | 0.00 | 0.00 | 0.00 | 64 | 1008.2 |
| 20260905172547 | 91 | 255 | 5.0 | 14.0 | 0.00 | 0.00 | 0.00 | 64 | 1008.1 |
| 20260905172027 | 91 | 247 | 2.0 | 15.0 | 0.00 | 0.00 | 0.00 | 64 | 1008.3 |
| 20260905171539 | 92 | 247 | 6.0 | 15.0 | 0.00 | 0.00 | 0.00 | 61 | 1008.4 |
| 20260905171024 | 92 | 245 | 3.0 | 15.0 | 0.00 | 0.00 | 0.00 | 62 | 1008.4 |
| 20260905170505 | 93 | 244 | 4.0 | 15.0 | 0.00 | 0.00 | 0.00 | 59 | 1008.6 |
| 20260905170031 | 93 | 241 | 6.0 | 15.0 | 0.00 | 0.00 | 0.00 | 59 | 1008.6 |
| 20260905165508 | 93 | 211 | 4.0 | 10.0 | 0.00 | 0.00 | 0.00 | 60 | 1008.6 |
| 20260905165101 | 93 | 209 | 4.0 | 10.0 | 0.00 | 0.00 | 0.00 | 60 | 1008.6 |
| 20260905164517 | 93 | 205 | 4.0 | 9.0 | 0.00 | 0.00 | 0.00 | 61 | 1008.7 |
| 20260905164056 | 92 | 205 | 0.0 | 10.0 | 0.00 | 0.00 | 0.00 | 64 | 1008.8 |
| 20260905163540 | 92 | 204 | 6.0 | 10.0 | 0.00 | 0.00 | 0.00 | 64 | 1008.7 |
| 20260905163103 | 92 | 209 | 3.0 | 7.0 | 0.00 | 0.00 | 0.00 | 64 | 1008.6 |
| 20260905162545 | 92 | 209 | 1.0 | 5.0 | 0.00 | 0.00 | 0.00 | 67 | 1008.7 |
| 20260905162029 | 91 | 209 | 1.0 | 8.0 | 0.00 | 0.00 | 0.00 | 69 | 1008.7 |
| 20260905161540 | 91 | 209 | 4.0 | 8.0 | 0.00 | 0.00 | 0.00 | 69 | 1008.8 |
| 20260905161025 | 91 | 209 | 3.0 | 8.0 | 0.00 | 0.00 | 0.00 | 69 | 1009.0 |
| 20260905160506 | 91 | 209 | 2.0 | 7.0 | 0.00 | 0.00 | 0.00 | 71 | 1008.9 |
| 20260905160044 | 90 | 209 | 3.0 | 7.0 | 0.00 | 0.00 | 0.00 | 70 | 1009.0 |
| 20260905155508 | 90 | 209 | 3.0 | 5.0 | 0.00 | 0.00 | 0.00 | 71 | 1009.0 |
| 20260905155056 | 89 | 209 | 1.0 | 6.0 | 0.00 | 0.00 | 0.00 | 74 | 1009.0 |
| 20260905154550 | 89 | 209 | 4.0 | 6.0 | 0.00 | 0.00 | 0.00 | 73 | 1009.2 |
| 20260905154034 | 89 | 209 | 1.0 | 7.0 | 0.00 | 0.00 | 0.00 | 71 | 1009.2 |
| 20260905153511 | 89 | 209 | 3.0 | 6.0 | 0.00 | 0.00 | 0.00 | 71 | 1009.3 |
| 20260905153113 | 89 | 209 | 3.0 | 6.0 | 0.00 | 0.00 | 0.00 | 72 | 1009.2 |
| 20260905152552 | 89 | 209 | 2.0 | 6.0 | 0.00 | 0.00 | 0.00 | 70 | 1009.3 |
| 20260905152035 | 89 | 209 | 2.0 | 6.0 | 0.00 | 0.00 | 0.00 | 72 | 1009.3 |
| 20260905151543 | 89 | 209 | 3.0 | 7.0 | 0.00 | 0.00 | 0.00 | 71 | 1009.4 |
| 20260905151031 | 88 | 209 | 4.0 | 7.0 | 0.00 | 0.00 | 0.00 | 71 | 1009.3 |
| 20260905150507 | 88 | 209 | 3.0 | 6.0 | 0.00 | 0.00 | 0.00 | 71 | 1009.3 |
| 20260905150033 | 88 | 209 | 3.0 | 6.0 | 0.00 | 0.00 | 0.00 | 74 | 1009.3 |
| 20260905145508 | 87 | 209 | 3.0 | 7.0 | 0.00 | 0.00 | 0.00 | 77 | 1009.3 |
| 20260905145057 | 86 | 209 | 3.0 | 7.0 | 0.00 | 0.00 | 0.00 | 76 | 1009.4 |
| 20260905144551 | 86 | 209 | 4.0 | 6.0 | 0.00 | 0.00 | 0.00 | 76 | 1009.5 |
| 20260905144032 | 86 | 209 | 3.0 | 6.0 | 0.00 | 0.00 | 0.00 | 77 | 1009.4 |
| 20260905143511 | 85 | 209 | 1.0 | 7.0 | 0.00 | 0.00 | 0.00 | 77 | 1009.4 |
| 20260905143100 | 85 | 209 | 2.0 | 7.0 | 0.00 | 0.00 | 0.00 | 77 | 1009.5 |
| 20260905142550 | 85 | 209 | 1.0 | 6.0 | 0.00 | 0.00 | 0.00 | 77 | 1009.5 |
| 20260905142035 | 85 | 209 | 3.0 | 5.0 | 0.00 | 0.00 | 0.00 | 77 | 1009.4 |
| 20260905141523 | 84 | 209 | 3.0 | 6.0 | 0.00 | 0.00 | 0.00 | 78 | 1009.4 |
| 20260905141058 | 84 | 209 | 3.0 | 6.0 | 0.00 | 0.00 | 0.00 | 78 | 1009.3 |
| 20260905140550 | 83 | 209 | 3.0 | 5.0 | 0.00 | 0.00 | 0.00 | 79 | 1009.3 |
| 20260905140002 | 83 | 209 | 1.0 | 6.0 | 0.00 | 0.00 | 0.00 | 80 | 1009.3 |
| 20260905135550 | 83 | 209 | 3.0 | 9.0 | 0.00 | 0.00 | 0.00 | 81 | 1009.2 |
| 20260905135035 | 82 | 209 | 4.0 | 9.0 | 0.00 | 0.00 | 0.00 | 82 | 1009.2 |
| 20260905134604 | 82 | 209 | 3.0 | 5.0 | 0.00 | 0.00 | 0.00 | 83 | 1009.2 |
| 20260905134037 | 81 | 209 | 2.0 | 4.0 | 0.00 | 0.00 | 0.00 | 83 | 1009.2 |
| 20260905133523 | 81 | 209 | 0.0 | 5.0 | 0.00 | 0.00 | 0.00 | 85 | 1009.2 |
| 20260905133045 | 80 | 209 | 0.0 | 4.0 | 0.00 | 0.00 | 0.00 | 86 | 1009.2 |
| 20260905132524 | 80 | 209 | 0.0 | 4.0 | 0.00 | 0.00 | 0.00 | 87 | 1009.3 |
| 20260905132103 | 79 | 209 | 1.0 | 4.0 | 0.00 | 0.00 | 0.00 | 87 | 1009.2 |
| 20260905131555 | 79 | 209 | 1.0 | 6.0 | 0.00 | 0.00 | 0.00 | 88 | 1009.2 |
| 20260905131036 | 78 | 209 | 1.0 | 6.0 | 0.00 | 0.00 | 0.00 | 89 | 1009.2 |
| 20260905130507 | 77 | 209 | 0.0 | 3.0 | 0.00 | 0.00 | 0.00 | 90 | 1009.2 |
| 20260905130028 | 76 | 209 | 1.0 | 3.0 | 0.00 | 0.00 | 0.00 | 91 | 1009.2 |
| 20260905125508 | 76 | 209 | 2.0 | 3.0 | 0.00 | 0.00 | 0.00 | 92 | 1009.2 |
| 20260905125057 | 75 | 209 | 1.0 | 3.0 | 0.00 | 0.00 | 0.00 | 93 | 1009.2 |
| 20260905124505 | 75 | 209 | 0.0 | 2.0 | 0.00 | 0.00 | 0.00 | 94 | 1009.2 |
| 20260905124052 | 74 | 209 | 0.0 | 2.0 | 0.00 | 0.00 | 0.00 | 94 | 1009.2 |
| 20260905123538 | 74 | 209 | 0.0 | 1.0 | 0.00 | 0.00 | 0.00 | 94 | 1009.1 |
| 20260905123032 | 74 | 209 | 0.0 | 3.0 | 0.00 | 0.00 | 0.00 | 94 | 1009.2 |
| 20260905122511 | 74 | 209 | 0.0 | 4.0 | 0.00 | 0.00 | 0.00 | 94 | 1009.2 |
| 20260905122053 | 73 | 209 | 0.0 | 4.0 | 0.00 | 0.00 | 0.00 | 95 | 1009.2 |
| 20260905121542 | 73 | 209 | 1.0 | 3.0 | 0.00 | 0.00 | 0.00 | 96 | 1009.2 |
| 20260905121032 | 72 | 209 | 0.0 | 5.0 | 0.00 | 0.00 | 0.00 | 96 | 1009.3 |
| 20260905120506 | 72 | 209 | 2.0 | 5.0 | 0.00 | 0.00 | 0.00 | 97 | 1009.3 |
| 20260905120101 | 72 | 209 | 1.0 | 4.0 | 0.00 | 0.00 | 0.00 | 97 | 1009.2 |
| 20260905115552 | 71 | 209 | 1.0 | 3.0 | 0.00 | 0.00 | 0.00 | 97 | 1009.3 |
| 20260905115034 | 71 | 209 | 1.0 | 3.0 | 0.00 | 0.00 | 0.00 | 97 | 1009.3 |
| 20260905114620 | 71 | 209 | 1.0 | 3.0 | 0.00 | 0.00 | 0.00 | 97 | 1009.1 |
| 20260905114033 | 71 | 209 | 1.0 | 3.0 | 0.00 | 0.00 | 0.00 | 97 | 1009.1 |
| 20260905113509 | 70 | 209 | 0.0 | 1.0 | 0.00 | 0.00 | 0.00 | 97 | 1009.1 |
| 20260905113033 | 70 | 209 | 0.0 | 0.0 | 0.00 | 0.00 | 0.00 | 97 | 1009.1 |
| 20260905112504 | 71 | 209 | 0.0 | 0.0 | 0.00 | 0.00 | 0.00 | 97 | 1009.1 |
| 20260905112059 | 71 | 209 | 0.0 | 0.0 | 0.00 | 0.00 | 0.00 | 97 | 1008.9 |
| 20260905111517 | 70 | 209 | 0.0 | 0.0 | 0.00 | 0.00 | 0.00 | 97 | 1009.0 |
| 20260905111000 | 70 | 209 | 0.0 | 2.0 | 0.00 | 0.00 | 0.00 | 97 | 1009.0 |
| 20260905110552 | 70 | 209 | 0.0 | 4.0 | 0.00 | 0.00 | 0.00 | 97 | 1009.0 |
| 20260905110016 | 70 | 209 | 1.0 | 4.0 | 0.00 | 0.00 | 0.00 | 97 | 1008.9 |
| 20260905105553 | 70 | 209 | 2.0 | 4.0 | 0.00 | 0.00 | 0.00 | 97 | 1008.9 |
| 20260905105038 | 71 | 209 | 1.0 | 4.0 | 0.00 | 0.00 | 0.00 | 97 | 1008.8 |
| 20260905104551 | 71 | 209 | 2.0 | 5.0 | 0.00 | 0.00 | 0.00 | 97 | 1008.9 |